Probability
90 87 84 74 84 74 77 87 87 90 94 94 94 94 84 90 90 87 90 90 97 97 94 90 90 97 94 100 100 100 97 94 97 94 94 97 97 97 100 97 97 100 97
87 81 77 65 58 58 65 71 77 84 77 81 84 84 90 84 87 84 87 84 87 97 97 97 94 87 87 84 84 84 81 90 94 90 94 94 94 97 97 100 97 97 97
77 71 58 45 39 39 29 39 48 48 61 58 65 61 61 65 71 74 74 84 81 87 90 94 94 90 87 77 77 84 81 81 81 84 87 90 97 87 90 94 94 87 68
65 52 45 39 29 26 23 19 19 19 29 26 23 26 32 42 42 42 58 61 68 61 74 87 94 94 90 87 81 87 84 87 81 77 81 74 84 84 81 81 84 61 48
55 35 26 26 19 13 13 16 10 6 6 10 13 13 10 13 19 26 39 42 45 48 58 58 84 87 84 84 90 87 81 87 77 77 74 71 74 71 68 71 65 45 42
23 16 19 16 16 16 3 3 3 0 0 0 3 6 6 3 3 6 10 19 29 39 42 55 65 65 68 81 87 87 84 84 71 71 74 74 77 74 61 58 52 48 35
6 6 13 13 6 10 3 0 0 0 0 0 0 0 0 0 3 3 3 10 13 13 26 42 52 55 52 52 68 77 77 81 81 81 71 61 74 74 61 55 52 39 35
6 10 6 13 10 6 3 3 3 0 0 0 3 0 0 0 0 0 0 0 6 13 16 19 26 35 35 39 35 55 68 81 84 84 77 68 65 65 61 58 45 32 29
6 3 3 10 3 3 6 3 0 0 0 0 0 0 0 0 0 0 0 0 0 3 0 6 6 10 29 35 42 26 52 65 71 74 84 74 48 52 58 58 55 39 26
0 3 3 3 3 3 3 0 0 0 0 0 0 0 0 0 0 0 0 0 0 0 0 0 0 0 13 26 19 13 19 23 48 68 71 71 55 48 39 48 61 58 42
0 0 0 0 0 0 0 0 0 0 0 0 0 0 0 0 0 0 0 0 0 0 0 0 0 0 3 10 16 10 3 3 6 19 52 58 55 42 32 39 42 52 52
0 0 0 0 0 0 0 0 0 0 0 0 0 0 0 0 0 0 0 0 0 0 0 0 0 3 3 0 0 3 3 3 3 3 3 26 32 35 39 42 52 52 48
0 0 0 0 0 0 0 0 0 0 0 0 0 0 0 0 0 0 0 0 0 0 0 0 0 3 0 0 6 0 3 3 0 0 0 6 13 23 19 19 32 39 45
0 0 0 0 0 0 0 0 0 0 0 0 0 0 0 0 0 0 0 0 0 0 0 0 0 0 0 0 0 0 0 0 0 0 0 0 3 6 6 6 6 6 13
0 0 0 0 0 0 0 0 0 0 0 0 0 0 0 0 0 0 0 0 0 0 0 0 0 0 0 0 0 0 0 0 0 0 0 0 0 3 3 3 3 3 6
0 0 0 0 0 0 0 0 0 0 0 0 0 0 0 0 0 0 0 0 0 0 0 0 0 0 0 0 0 0 0 0 0 0 0 0 0 0 0 0 3 3 3
0 0 0 0 0 0 0 0 0 0 0 0 0 0 0 0 0 0 0 0 0 0 0 0 0 0 0 0 0 0 0 0 0 0 0 0 0 0 0 0 0 0 0
0 0 0 0 0 0 0 0 0 0 0 0 0 0 0 0 0 0 0 0 0 0 0 0 0 0 0 0 0 0 0 0 0 0 0 0 0 0 0 0 0 0 0
0 0 0 0 0 0 0 0 0 0 0 0 0 0 0 0 0 0 0 0 0 0 0 0 0 0 0 0 0 0 0 0 0 0 0 0 0 0 0 0 0 0 0
0 0 0 0 0 0 0 0 0 0 0 0 0 0 0 0 0 0 0 0 0 0 0 0 0 0 0 0 0 0 0 0 0 0 0 0 0 0 0 0 0 0 0
0 0 0 0 0 0 0 0 0 0 0 0 0 0 0 0 0 0 0 0 0 0 0 0 0 0 0 0 0 0 0 0 0 0 0 0 0 0 0 0 0 0 0
0 0 0 0 0 0 0 0 0 0 0 0 0 0 0 0 0 0 0 0 0 0 0 0 0 0 0 0 0 0 0 0 0 0 0 0 0 0 0 0 0 0 0
0 0 0 0 0 0 0 0 0 0 0 0 0 0 0 0 0 0 0 0 0 0 0 0 0 0 0 0 0 0 0 0 0 0 0 0 0 0 0 0 0 0 0
0 0 0 0 0 0 0 0 0 0 0 0 0 0 0 0 0 0 0 0 0 0 0 0 0 0 0 0 0 0 0 0 0 0 0 0 0 0 0 0 0 0 0
0 0 0 0 0 0 0 0 0 0 0 0 0 0 0 0 0 0 0 0 0 0 0 0 0 0 0 0 0 0 0 0 0 0 0 0 0 0 0 0 0 0 0
0 0 0 0 0 0 0 0 0 0 0 0 0 0 0 0 0 0 0 0 0 0 0 0 0 0 0 0 0 0 0 0 0 0 0 0 0 0 0 0 0 0 0
Height
5852 5851 5851 5851 5850 5851 5851 5851 5851 5851 5851 5851 5851 5852 5852 5853 5854 5854 5855 5856 5857 5859 5860 5861 5862 5864 5865 5867 5868 5870 5871 5873 5875 5877 5879 5880 5882 5883 5885 5886 5888 5890 5891
5845 5845 5844 5845 5845 5844 5845 5845 5845 5845 5846 5847 5847 5847 5847 5848 5849 5850 5851 5851 5853 5854 5855 5856 5857 5859 5860 5861 5863 5864 5866 5868 5870 5872 5874 5876 5878 5879 5881 5883 5885 5887 5888
5837 5837 5838 5838 5838 5838 5838 5839 5839 5840 5840 5841 5842 5842 5843 5844 5845 5845 5846 5847 5848 5849 5850 5852 5853 5853 5855 5856 5857 5858 5860 5862 5864 5866 5869 5871 5873 5875 5877 5879 5881 5883 5885
5829 5829 5831 5831 5832 5832 5832 5833 5833 5834 5835 5836 5836 5837 5838 5839 5840 5841 5842 5842 5843 5844 5845 5847 5847 5848 5849 5850 5851 5852 5854 5856 5858 5860 5862 5865 5868 5870 5872 5874 5877 5879 5881
5821 5822 5823 5824 5825 5826 5826 5827 5828 5829 5830 5830 5831 5832 5833 5834 5835 5836 5837 5838 5839 5840 5841 5842 5843 5843 5844 5845 5845 5846 5848 5849 5851 5854 5856 5859 5861 5864 5867 5869 5872 5875 5877
5813 5814 5816 5817 5818 5818 5819 5821 5822 5823 5824 5825 5826 5827 5829 5830 5831 5832 5833 5834 5835 5836 5837 5837 5838 5838 5839 5840 5840 5841 5842 5843 5845 5847 5849 5852 5854 5857 5861 5863 5866 5869 5872
5805 5806 5808 5809 5811 5812 5813 5814 5815 5817 5818 5819 5820 5822 5824 5825 5826 5827 5828 5829 5830 5831 5832 5833 5833 5834 5834 5835 5835 5836 5836 5837 5839 5841 5843 5845 5847 5850 5853 5857 5860 5863 5866
5798 5800 5802 5803 5804 5805 5806 5807 5809 5810 5812 5813 5814 5816 5818 5820 5821 5822 5824 5825 5826 5827 5828 5829 5829 5829 5829 5830 5830 5830 5831 5831 5832 5834 5836 5838 5841 5843 5846 5850 5853 5856 5859
5793 5794 5795 5796 5798 5799 5799 5800 5802 5803 5805 5806 5808 5810 5812 5814 5816 5817 5818 5820 5821 5822 5823 5824 5824 5825 5825 5825 5825 5825 5825 5825 5826 5827 5829 5831 5834 5836 5839 5842 5845 5848 5852
5787 5787 5788 5789 5790 5791 5792 5793 5794 5795 5797 5799 5801 5803 5805 5807 5809 5811 5813 5815 5816 5817 5818 5819 5819 5819 5820 5820 5819 5819 5819 5819 5820 5821 5822 5824 5826 5829 5832 5835 5838 5841 5844
5779 5780 5780 5781 5782 5782 5783 5785 5786 5788 5790 5792 5793 5795 5798 5800 5802 5804 5806 5808 5810 5811 5812 5813 5814 5814 5814 5814 5814 5814 5814 5814 5814 5814 5816 5817 5819 5821 5824 5827 5830 5833 5836
5770 5770 5770 5771 5772 5773 5774 5775 5777 5779 5781 5783 5785 5787 5790 5792 5794 5797 5799 5800 5802 5804 5805 5806 5808 5808 5808 5808 5808 5808 5808 5808 5808 5808 5809 5811 5812 5814 5817 5819 5822 5825 5828
5757 5757 5758 5759 5760 5761 5763 5764 5766 5768 5770 5773 5775 5777 5780 5783 5785 5788 5791 5793 5795 5797 5798 5800 5801 5802 5802 5802 5802 5802 5802 5802 5802 5802 5803 5804 5805 5807 5809 5812 5814 5817 5820
5742 5742 5743 5744 5746 5748 5750 5752 5754 5756 5758 5761 5764 5766 5769 5772 5775 5778 5781 5784 5787 5789 5791 5792 5794 5795 5796 5796 5796 5796 5796 5795 5795 5796 5797 5798 5799 5801 5803 5805 5807 5810 5813
5724 5724 5725 5727 5729 5731 5734 5736 5739 5742 5745 5748 5751 5754 5757 5761 5764 5767 5771 5774 5778 5781 5783 5784 5786 5788 5789 5790 5790 5790 5790 5789 5789 5790 5790 5792 5793 5795 5797 5798 5800 5803 5805
5703 5704 5705 5707 5710 5713 5716 5719 5722 5725 5729 5733 5736 5740 5744 5748 5752 5756 5759 5763 5767 5771 5774 5776 5778 5780 5782 5783 5783 5783 5783 5783 5783 5784 5784 5786 5787 5789 5790 5792 5793 5796 5798
5681 5682 5684 5686 5688 5691 5695 5699 5703 5706 5711 5715 5720 5724 5729 5733 5738 5742 5747 5751 5756 5760 5764 5767 5769 5772 5774 5775 5776 5777 5777 5777 5777 5777 5778 5780 5781 5783 5784 5786 5787 5789 5791
5659 5659 5660 5663 5665 5668 5672 5676 5681 5686 5691 5696 5701 5707 5712 5718 5723 5728 5733 5738 5743 5749 5753 5757 5760 5763 5765 5767 5769 5770 5770 5771 5771 5771 5772 5774 5775 5777 5778 5779 5781 5783 5785
5638 5637 5638 5640 5642 5645 5649 5653 5658 5664 5669 5675 5681 5688 5694 5700 5707 5712 5718 5724 5730 5736 5741 5746 5750 5754 5757 5759 5761 5762 5763 5764 5765 5765 5766 5768 5769 5771 5772 5773 5775 5777 5779
5619 5619 5619 5619 5621 5623 5626 5631 5635 5641 5647 5653 5660 5667 5675 5682 5689 5696 5703 5710 5716 5723 5729 5735 5740 5744 5747 5750 5753 5755 5756 5757 5758 5759 5760 5762 5763 5764 5766 5768 5770 5772 5774
5602 5602 5602 5602 5602 5604 5606 5609 5613 5619 5625 5632 5639 5646 5654 5662 5671 5679 5687 5695 5702 5709 5716 5723 5729 5734 5738 5742 5745 5747 5749 5750 5752 5753 5755 5756 5757 5759 5760 5762 5764 5766 5768
5585 5585 5586 5587 5587 5588 5589 5591 5594 5599 5604 5610 5618 5625 5633 5642 5652 5661 5670 5679 5687 5695 5703 5711 5717 5723 5729 5733 5736 5738 5741 5743 5745 5747 5749 5750 5752 5753 5755 5757 5758 5761 5763
5567 5569 5570 5572 5573 5574 5575 5577 5579 5582 5586 5591 5598 5605 5614 5623 5632 5643 5653 5663 5673 5682 5690 5699 5706 5713 5718 5723 5727 5730 5733 5736 5738 5740 5742 5744 5746 5748 5750 5751 5753 5755 5757
5550 5552 5555 5557 5559 5561 5563 5565 5566 5569 5572 5576 5581 5588 5596 5604 5614 5625 5636 5647 5658 5668 5678 5686 5695 5702 5708 5713 5717 5722 5725 5728 5731 5733 5736 5738 5740 5742 5744 5746 5747 5750 5752
5534 5537 5540 5543 5546 5549 5551 5553 5555 5558 5561 5564 5568 5573 5580 5589 5598 5609 5620 5633 5644 5654 5664 5673 5682 5690 5697 5703 5708 5713 5717 5721 5724 5727 5729 5732 5734 5735 5738 5740 5742 5744 5746
5519 5522 5526 5529 5533 5537 5540 5542 5545 5548 5551 5554 5557 5562 5568 5575 5583 5593 5605 5617 5630 5641 5651 5661 5670 5678 5686 5693 5699 5705 5710 5714 5717 5720 5723 5725 5727 5730 5732 5734 5736 5739 5741
Wind_Speed
28 27 27 27 26 25 24 23 22 22 21 21 21 21 22 22 19 19 20 20 20 21 21 22 23 23 23 24 24 23 23 23 22 21 20 19 17 18 18 18 17 16 15
29 28 27 27 27 26 24 22 22 21 21 20 19 19 19 18 19 19 19 20 20 20 20 20 21 22 23 24 25 25 25 25 25 24 23 22 21 20 20 20 19 18 17
30 30 28 28 27 25 23 22 21 21 20 19 19 18 18 17 18 18 18 18 18 19 19 20 20 21 23 24 25 26 26 27 27 27 26 25 25 23 22 22 21 21 19
31 30 28 28 27 25 23 21 21 21 20 20 19 18 17 17 17 16 16 16 16 17 18 18 19 20 21 23 24 25 26 28 29 28 28 28 27 26 25 24 23 23 22
31 29 28 27 26 25 22 21 21 21 21 20 20 19 19 18 18 17 17 16 16 16 16 17 18 20 21 22 24 25 25 26 28 30 30 29 29 29 28 27 26 25 24
29 28 28 27 26 24 22 23 23 22 22 21 21 21 20 20 19 18 17 17 17 17 17 17 18 18 19 21 23 24 25 26 27 29 31 31 31 31 30 30 29 28 27
26 27 27 27 26 24 23 23 23 23 23 23 22 22 22 21 20 19 18 17 17 17 17 17 18 18 19 19 21 23 24 26 27 28 30 31 32 33 32 31 31 30 30
24 24 25 25 25 24 24 24 24 24 24 24 24 23 23 22 21 20 19 18 17 17 17 16 16 17 17 18 19 21 23 25 25 27 29 31 32 32 32 32 33 33 32
24 24 25 26 26 26 25 25 26 26 26 25 26 25 25 24 23 21 19 18 17 17 16 16 16 17 17 17 18 19 20 22 25 26 28 29 31 32 33 33 33 33 33
27 27 27 28 28 28 28 28 28 28 28 28 28 27 27 26 25 23 22 20 19 18 17 17 17 17 17 17 18 19 20 21 23 25 26 28 30 32 34 34 34 34 35
30 30 30 31 31 31 31 31 30 30 30 30 30 30 29 29 28 27 25 24 22 20 19 18 18 18 17 18 18 19 20 22 23 24 25 26 28 30 31 33 34 35 35
36 36 36 36 35 35 34 34 34 33 33 33 32 33 33 32 31 30 29 27 25 24 22 20 20 19 18 18 19 19 20 21 23 24 24 25 26 28 28 30 32 33 34
43 42 42 41 40 40 40 39 38 38 37 37 36 36 36 35 35 34 32 31 29 27 25 24 22 20 19 19 19 19 20 21 22 23 23 24 25 26 27 28 30 31 32
48 48 48 48 47 46 46 45 44 43 43 42 40 40 40 38 38 37 35 34 32 30 29 27 25 23 21 20 20 19 20 21 21 22 23 23 23 25 25 27 29 31 32
54 54 53 53 53 52 51 51 50 49 48 47 46 45 43 42 41 40 39 37 35 33 31 30 28 25 23 21 20 20 20 20 21 21 22 23 23 24 25 26 28 29 30
59 59 59 58 58 57 56 56 56 54 54 53 52 51 49 47 46 44 42 40 39 36 33 32 31 28 25 23 22 21 21 21 21 21 22 23 23 23 23 25 27 29 29
61 61 61 61 61 61 60 60 60 60 58 57 56 55 53 52 50 49 47 44 42 39 36 33 33 31 28 25 23 22 21 21 21 21 22 22 23 23 23 24 26 28 29
58 59 61 62 62 63 63 63 63 63 63 62 61 59 57 56 54 52 50 48 45 42 39 36 34 32 30 27 25 23 22 21 21 21 22 22 23 23 24 24 24 26 27
50 53 56 58 60 62 64 65 64 64 64 64 63 63 61 59 57 55 52 50 48 45 42 39 36 34 31 29 26 24 23 21 21 22 22 23 23 23 24 24 24 24 25
44 45 47 49 52 56 59 63 65 66 66 66 65 64 63 62 60 58 56 53 50 48 45 42 38 36 33 30 27 26 24 23 22 22 22 22 23 22 22 23 24 24 24
42 42 42 42 44 47 51 56 61 65 67 67 67 66 65 64 62 60 58 55 53 50 47 44 41 38 35 32 29 27 25 23 23 22 22 22 23 23 22 22 23 24 25
41 40 40 39 39 40 43 46 51 56 61 65 67 66 65 64 63 62 59 57 55 51 48 46 42 39 36 33 30 28 26 25 24 23 23 22 23 23 22 22 22 24 24
42 40 38 37 37 37 38 39 42 45 50 55 61 64 65 64 63 63 61 58 56 53 50 47 43 40 37 34 32 29 27 26 25 24 24 23 22 23 23 22 22 22 23
41 39 38 37 36 34 34 34 34 36 38 43 49 55 60 61 61 61 61 59 56 54 51 48 44 41 39 36 33 30 28 27 25 24 23 24 23 23 23 23 23 23 23
39 38 37 36 34 33 32 32 32 31 32 35 39 45 51 55 58 59 59 59 57 54 52 49 46 44 41 37 34 31 29 27 25 24 24 24 24 24 24 23 23 23 23
37 35 34 34 33 32 31 30 30 29 29 31 33 37 41 47 53 55 57 57 57 54 52 50 48 45 41 38 35 32 30 28 26 25 24 23 23 23 23 22 22 22 23
Wind_Direction
275 276 276 276 275 274 273 272 269 271 270 269 267 267 267 264 262 260 257 255 253 254 256 255 251 250 248 244 243 244 242 240 241 240 239 238 237 235 232 230 228 228 229
271 274 273 274 273 272 271 270 269 269 267 266 265 265 264 260 257 259 259 257 257 256 255 256 255 254 254 252 248 246 244 241 241 242 242 240 239 239 236 234 232 232 232
267 270 272 272 272 269 268 268 267 266 264 262 261 260 257 255 255 257 259 258 256 256 256 257 258 259 259 259 254 250 249 245 244 243 243 242 241 240 238 236 235 235 235
264 267 269 269 270 268 265 264 263 262 260 258 257 255 252 251 254 256 258 256 255 255 257 260 260 260 261 262 260 259 253 249 246 244 244 243 242 241 240 238 236 237 238
263 267 266 265 265 263 261 261 258 257 256 254 252 252 251 251 251 254 255 254 254 256 258 261 262 263 263 263 263 261 258 256 252 247 245 244 243 242 241 239 238 239 240
263 264 264 263 261 258 259 257 254 253 251 250 249 249 249 249 250 252 253 254 255 256 259 261 264 265 267 266 265 264 262 259 255 251 247 245 244 242 243 241 240 240 240
264 260 262 262 260 257 255 255 254 250 248 247 246 246 246 246 248 249 250 251 252 254 258 262 265 266 268 269 268 266 264 262 258 255 250 248 246 244 242 242 241 241 241
264 260 260 263 263 260 256 256 255 250 249 248 246 245 244 244 245 246 247 249 252 254 257 262 266 268 271 272 271 268 265 263 260 257 253 251 249 246 243 242 241 240 240
270 266 265 266 264 261 258 255 254 251 249 247 244 244 244 243 243 244 246 248 251 254 257 262 267 270 273 275 275 271 269 266 263 260 256 254 251 248 245 244 243 241 240
272 269 268 267 265 262 259 256 255 251 249 246 243 242 242 243 244 245 246 248 250 253 256 261 266 270 273 275 276 277 274 270 265 261 258 256 252 248 245 246 245 242 241
270 267 267 266 263 261 258 257 255 252 250 247 244 242 241 242 244 245 248 249 250 253 256 261 265 270 273 276 278 280 278 274 268 263 259 258 254 249 246 246 245 243 242
268 267 266 264 262 259 257 256 255 253 251 250 248 244 242 241 242 244 247 250 253 254 256 260 265 269 273 276 280 281 280 277 271 267 262 259 255 250 250 249 245 243 242
266 265 263 262 260 258 257 256 254 253 251 250 249 247 244 242 242 242 244 247 250 254 256 258 262 266 272 276 280 282 281 278 273 267 262 259 255 251 251 250 247 243 242
265 263 261 259 258 257 255 254 253 252 251 250 249 248 246 244 243 242 243 244 247 250 254 257 260 264 268 273 277 280 281 279 274 268 262 257 255 253 251 249 248 245 243
265 263 260 258 257 255 254 253 251 250 249 249 248 247 246 246 245 244 243 243 244 246 250 255 259 262 265 269 273 277 280 280 275 268 261 256 255 254 252 250 249 246 245
265 263 261 259 256 254 252 251 250 248 247 246 246 246 246 246 245 244 244 243 243 244 246 251 256 259 262 265 269 274 277 278 274 267 261 256 253 253 255 253 248 246 247
266 263 261 259 257 254 252 250 248 247 246 245 244 244 244 245 245 245 244 243 242 242 243 245 251 255 259 261 264 270 273 275 272 267 261 256 253 254 255 254 248 246 247
266 263 260 258 256 254 252 250 248 246 245 244 243 242 242 242 242 242 243 242 242 242 242 242 246 251 255 258 261 265 270 272 269 265 260 257 254 254 254 253 249 247 246
270 265 262 259 256 253 251 249 247 246 244 243 242 241 240 239 240 240 241 241 241 241 240 240 243 247 251 254 258 261 266 268 266 262 259 257 255 254 253 251 248 246 244
272 269 266 262 259 255 252 249 247 245 243 242 241 240 239 238 238 238 239 239 239 239 239 239 240 243 247 250 254 258 261 263 263 260 257 256 254 253 252 250 247 245 243
272 268 266 265 262 259 255 252 248 245 243 242 241 240 238 237 236 236 236 236 236 236 237 237 238 240 243 246 249 253 256 258 258 256 255 254 251 252 250 249 249 246 243
272 267 265 264 263 261 259 255 252 248 245 242 241 239 238 236 235 233 233 233 234 234 234 235 235 237 239 242 245 248 251 253 252 253 253 253 253 250 248 248 248 246 243
271 267 264 263 262 262 260 258 255 251 248 244 241 239 237 235 233 231 230 230 231 231 232 232 232 233 235 238 241 243 246 247 247 250 252 251 250 247 246 247 247 245 242
268 263 261 260 259 259 259 258 255 253 249 245 241 238 236 234 232 230 229 228 228 228 228 228 229 230 231 234 237 239 241 244 245 248 249 249 247 245 245 246 245 243 240
265 260 257 256 255 254 255 255 253 251 249 245 242 238 235 233 231 228 227 226 225 225 225 225 226 227 229 231 233 235 238 240 242 244 246 247 245 244 245 245 242 242 240
263 257 254 252 251 249 250 252 251 250 249 246 242 238 235 232 229 227 225 223 223 222 222 222 223 224 226 228 229 231 233 235 237 239 243 244 242 243 243 241 241 240 239